timestamp,gas_concentrations,,corrected_fluxes_and_quality_flags,,,,,,,,,,storage_terms,,,turbulence,,,footprint,,
ISOdate,CO2_1_1_1,H2O_1_1_1,Tau_1_1_1,QcTau_1_1_1,H_1_1_1,QcH_1_1_1,LE_1_1_1, QcLE_1_1_1,Fc_1_1_1, QcFc_1_1_1,E_1_1_1, QcE_1_1_1,Sa_1_1_1,Sw_1_1_1,Sc_1_1_1,ustar_1_1_1,MO_length_1_1_1,ZL_1_1_1,Fetchmax_1_1_1,Fetch70_1_1_1,Fetch90_1_1_1
yyyymmddHHMM,[µmol+1mol_a-1],[mmol+1mol_a-1],[kg+1m-1s-2],[#],[W+1m-2],[#],[W+1m-2],[#],[µmol+1s-1m-2],[#],[mmol+1s-1m-2],[#],[W+1m-2],[W+1m-2],[µmol+1s-1m-2],[m+1s-1],[m],[#],[m],[m],[m]
201307070030,380.14452873848444,21.986188695684039,0.23022552249725906,0,-93.021197380341746,0,166.89242985694085,0,10.363442251649211,0,3.7781236363259310,0,-9999.,-9999.,-9999.,0.45477278035821755,84.983075440670845,0.25416825512604080,107.45384899844771,196.45990661656776,294.33273979379862
201307070100,395.61820731927048,22.039193618468612,0.11173196231451935,0,-53.497463484425673,0,102.66413319021525,2,2.1329443279818623,2,2.3240189145326462,2,-0.97730342339341691,1.7657201750499405,11.668637768911292,0.31670622972836909,49.928085879416649,0.43262223294854601,105.89655731898254,193.61268075379851,290.06707661888817
201307070130,380.86616457881604,22.599629612795226,0.10033930114632680,0,-29.352063332789676,1,27.433348303237580,1,4.6622134161742244,1,0.62089497532014915,1,-4.2900390325897648,18.697587038753426,-11.139123859086151,0.29996024236112839,77.358265897319669,0.27922032312190703,122.93716045640605,224.76833811062875,336.74392864351057
201307070200,384.59740204205912,22.594595857189415,9.63536446317616729E-002,0,-4.9553154822391008,2,32.730014374029182,0,4.1068299667620130,0,0.74029660443357759,0,-14.751792082750747,-0.16844528259560887,2.8240941889574751,0.29359463006771325,429.68519524923590,5.02693605430623996E-002,114.56639182525045,209.46390333315065,313.81509651369447
201307070230,385.43438538151372,22.371452571145134,6.91510704053378139E-002,0,-11.382166199250129,1,32.064992516871243,0,6.9254810983749335,0,0.72483462079043470,0,-13.308198146380024,-7.4854008191739041,0.63468149363435200,0.24847839992533646,113.38101163446858,0.19050809027561594,121.29487743580317,221.76572096966177,332.24546101786166
201307070300,390.19012714216728,22.087525296197523,2.40467515953379472E-002,0,-9.6677270496479757,0,72.442021194335069,1,-5.0871126908679063,0,1.6371817429100253,1,-5.3670660814130908,-9.5314459892206109,3.6080809702269070,0.14648204398670253,27.340305859572030,0.79004236861665145,181.78239747243927,1663.0000000000000,8165.0000000000000
201307070330,484.84035607613697,22.246542082840627,1.35372813516386513E-003,2,-0.67893816414733688,2,-58.912162545727952,2,2.8745828511577081,2,-1.3313741524814728,2,-0.59144520697340242,5.3384804829652719,71.811088719330741,3.47559498548891191E-002,5.2002514302788114,4.1536453168845950,801.78352884194283,6576.0000000000000,-9999.
201307070400,495.33693329537329,22.267718835482395,0.13790705676020037,0,-51.319952133582468,0,316.50110123960053,0,-41.893903715675407,0,7.1537187724308007,0,3.2521416535091014,0.71066032424282177,7.9617227226804479,0.35084369982258273,70.778518211529970,0.30517734117357259,115.69999916315685,211.53649909236040,316.92022263738653
201307070430,591.36267940645610,22.621083660296843,6.26207373687130420E-002,0,-27.183606477140177,2,317.61844239692169,1,-125.57499672642936,1,7.1788903283198131,1,-0.26600950902107923,11.854441449526869,72.811013647923502,0.23647420131935523,40.907121602390333,0.52802541840875561,102.23586861517174,186.91977428645194,280.03988312356341
201307070500,477.02431558008902,22.996148915274354,0.41461050483209932,1,-19.807804457949928,1,123.22194328306915,1,-66.120341516596056,1,2.7856350032942805,1,4.4673066096832557,12.570271094888005,-86.629526449027622,0.60875648926887349,957.75590056368958,2.25527193174035988E-002,176.57971936641295,322.84404421479945,483.67920812112760
201307070530,716.89546755998890,22.779373109729423,1.9991590900850751,0,-148.45968292940432,0,-9999.,-9999.,203.05363732353254,1,-9999.,-9999.,-3.6857872620701526,2076.6561921605398,181.80662680140247,1.3364426156548559,1351.8250828605860,1.59783985915488563E-002,158.18358625601610,289.21004574326281,433.28934949379504
201307070600,519.05121395533831,21.739901660395603,1.0865884588508963,1,-83.774597169406206,1,201.93240465282611,2,-121.04855526334167,1,4.5609238410223671,2,-16.949672925958534,-34.991340821241621,-150.42439145036917,0.98353889507228809,955.02660726383226,2.26171709099125262E-002,157.68074015364692,288.29068269359323,431.91197611550791
201307070630,438.69352236493989,22.006480184227780,1.6905562563801853,1,79.854608901872666,1,359.25037603695176,1,-91.161775509375829,1,8.1151968107361121,1,2.9189434108075032,8.9726398993140197,-61.097629083565629,1.2268595245722078,-1945.3646827955870,-1.11033166125745191E-002,180.61023227766549,330.21310728273090,494.71940741599303
201307070700,491.81971935432176,21.819991637013263,1.2309548188332924,1,5.0821260388835539,1,644.38208602168083,1,-36.005410528237206,1,14.553342608087965,1,-4.3816821412817957,-6.2830399366600824,40.424595021132482,1.0464431006793333,-18968.586614355514,-1.13872480006776164E-003,167.46274437865893,306.17530622714838,458.70640117387768
201307070730,553.19921095227494,21.598431066773319,3.4513264649687665,1,-74.884426701990861,1,215.72112547014274,2,-54.630631615771541,2,4.8710785157754248,2,-4.6153094431966188,-7.4726211103224776,46.745114466042125,1.7513834640309782,6035.5174132358516,3.57881495837147900E-003,177.48786744567104,324.50442854265759,486.16676640589765
201307070800,571.19936859575023,21.453096131848167,1.2604673352898703,0,168.35906114774713,0,-34.274693821954408,0,19.588133459809967,2,-0.77383602157559883,0,-3.0339868677063584,-4.9011736194578210,13.705085001831188,1.0585119088631805,-592.35010190011837,-3.64649215568838975E-002,144.01658089911052,263.30824161622508,394.48372698480813
201307070830,521.88496223298102,21.719556171872270,0.34657695781706982,0,-54.644553488939032,0,400.05589290845239,1,-156.44169527396596,1,9.0341041923464172,1,4.7260701734217800,8.9709771716458953,-37.492629077094044,0.55548012157455728,263.62294099108686,8.19352060894059375E-002,106.89163600846496,195.43200196224285,292.79275131286784
201307070900,429.46053635153891,21.822846076384803,0.41938700917890043,0,-35.920498866094043,2,551.94077984321041,1,-151.07423923999451,1,12.470418977948798,1,11.866191587463966,3.4688565711965351,-70.129992257295484,0.61166304978565167,535.41373471915892,4.03426333680623056E-002,105.21092338567506,192.35912325198504,288.18901905308701
201307070930,376.78770154643519,21.920358596576275,0.41782782219284004,0,50.911745374209126,1,208.38902514398725,0,-8.1182413264726101,0,4.7110772438782424,0,13.558805382862110,3.2655741293765179,-39.877804542003723,0.61122027335538165,-376.91091742742930,-5.73079711976209397E-002,111.91675392894729,204.61952020004429,306.55732781811565
201307071000,375.18813235115277,22.857000768978907,0.50677923621406151,0,41.899481710205691,0,225.23330607158158,0,-10.986063474267201,0,5.0983460965766270,0,28.960987177894740,31.193118468776024,-1.2058264907250327,0.67471042919612123,-616.24213579736568,-3.50511572404107255E-002,112.39612952261864,205.49597167427947,307.87041183688922
201307071030,371.43090441862137,23.857437532510296,0.50377150317565389,0,120.94285214999155,0,335.97878357201131,0,-12.767729953148223,0,7.6171638013071794,0,35.725764523372213,33.079841225574917,-2.8165843228677381,0.67471595471715906,-213.53324076409461,-0.10115521088289509,107.59293035833670,196.71419170016952,294.71370518584308
201307071100,367.38175956329957,24.787381850374096,0.41182877453987005,1,200.26929044002495,0,327.96181214958102,0,-21.760540026690833,0,7.4450011489198671,0,29.050750751106701,30.569153275367285,-3.0215603276026441,0.61155176089106944,-96.034584835872224,-0.22491897098233363,109.42389719579324,200.06178303596187,299.72900701786915
201307071130,366.47397346179628,24.529687025357305,0.26780762343361214,1,147.55059504324541,0,364.93102863888578,0,-16.740055741362440,0,8.2943163408789804,0,27.254568690049080,-8.4251182893181031,-0.67456475002869232,0.49417287988337699,-68.775165285772133,-0.31406685698607117,104.65775296377929,191.34775129610225,286.67379956707470
201307071200,367.16715846407919,23.444572205721911,0.35087990086240306,1,185.60731309410727,0,546.84537998356109,0,-21.778998247034885,0,12.441188800673819,0,21.954889329569223,-35.325467230752615,0.51340336536361697,0.56646365712454838,-82.340583287793848,-0.26232507880718381,114.39420294397902,209.14908714135947,313.34344449137018
201307071230,369.82042667484745,22.496817711068168,0.31070440634691093,1,143.16715130021481,0,375.98589594000396,0,-13.472202057408417,0,8.5555585193477679,0,4.0766217236219813,-30.834503107007908,1.9642604283600149,0.53306949447908158,-88.958666548888957,-0.24280939494668913,103.46551546614266,189.16796090577529,283.40807635254976
201307071300,369.45269947237523,22.110288311964695,0.52426855961119101,0,184.65193278173231,0,462.49485631173695,0,-21.123904134608097,0,10.526610195956833,0,5.3709357002392570,-12.562836391965893,-0.27202734590919792,0.69266074691239454,-151.31494812806858,-0.14274861979742007,121.59857565682434,222.32097817726819,333.07733749596673
201307071330,368.83595187196613,21.530786201757540,0.27495589133971832,1,106.78834828176312,0,178.13562994027731,0,-9.3415375670234901,0,4.0550969726016772,0,3.5231850212699678,-18.822050487876311,-0.45600523778086710,0.50169460162712687,-99.410969158651710,-0.21727984530085589,95.690713249300345,174.95314280740087,262.11168856218632
201307071400,367.55772901362104,21.680790202355038,0.23804333262867425,0,91.245407008861108,0,231.68486027488260,0,-13.202398150017050,0,5.2752781982767116,0,4.9748424917894036,4.8671907711793665,-0.94434311694099915,0.46700110039746151,-93.841014211834036,-0.23017654041164534,94.650034132296113,173.05044947393623,259.26110723253589
201307071430,365.76438793406885,22.014296109227949,0.20192739441447483,1,85.269776964713884,0,312.67292442298583,0,-20.849163101393998,0,7.1204838488978917,0,3.6555463853631016,10.813533356534617,-1.3241775508104898,0.43026407256604021,-78.540053149644862,-0.27501891243751558,96.817971836827667,177.01413102608760,265.19942447500404
201307071500,366.28440413367525,21.935219249182804,0.22506839135888082,0,61.081301381463973,0,259.25242595783169,0,-13.323737314650863,0,5.9040297291209791,0,0.33099177851730766,-2.5637974084955775,0.38395194127737176,0.45425512275188601,-129.02254454242760,-0.16741260278661677,114.05006048360254,208.51988496518300,312.40078497580964
201307071530,365.53793359090150,22.150870081820067,0.18938613116018357,0,53.274901343712685,0,280.19736105671018,0,-22.761887003868189,0,6.3819726848798490,0,3.3295762579422390,6.9863570309786107,-0.55081176933594145,0.41683986925530814,-114.29959592394242,-0.18897704602886906,109.09322135045882,199.45720212703887,298.82323464723663
201307071600,366.20233634728368,22.136949146807318,0.21247966769731252,0,28.919990702072074,0,183.46352458665075,0,-12.790147098159650,0,4.1778086813789477,0,-4.7068694173193402,-0.45145020419109638,0.49064987058303061,0.44134462155866827,-249.92861217103621,-8.64246786807196521E-002,118.44760782101484,216.56000402376080,324.44634842707501
201307071630,366.82245407892236,22.672277827465276,0.14303032664572929,0,27.503793364575753,0,189.82904935694623,0,-12.790720712988696,0,4.3226725389202771,0,-0.46782597562547618,17.359887830033372,0.45792063782191350,0.36215096238464423,-145.19712911966801,-0.14876327191151140,106.03635392182460,193.86827352963346,290.45000117219070
201307071700,365.53257282361477,23.153840622929508,8.91189962934996471E-002,1,21.199739701229838,1,117.43406235824442,0,-8.7783766912281074,0,2.6742598242636491,0,1.0147764452203927,15.613573099109161,-0.95237639114504224,0.28590990238701669,-92.700913038147519,-0.23300741375774095,99.972009534399248,182.78071786597826,273.83882237086334
201307071730,366.77080557316992,23.241030903719718,6.43714314208568422E-002,0,3.7601776281473449,1,74.582108027926793,0,-7.3993614301191029,0,1.6976084851088478,0,-10.581076096291989,2.8325313641061616,0.91561272635683966,0.24281333693261350,-320.10772641577165,-6.74772841063663031E-002,105.56146762311063,193.00002991836757,289.14921402781363
201307071800,366.14677424190302,23.523244142859671,1.38579614076782022E-002,1,-1.4363305111837916,2,31.238899483346160,1,-2.7562391161510194,1,0.71111085733638135,1,1.9815495111744079,9.1641275912923010,-0.46127691747077298,0.11268759503131560,83.766109783203873,0.25786084677804944,13.400633492062267,96.000000000000000,390.00000000000000
201307071830,365.40491860534780,25.549738217243032,4.35442714636963962E-002,0,-16.275998216758239,1,37.178580581660952,1,-2.6328332675588109,2,0.84524996031693289,1,-28.272325543882491,66.180586034076313,-0.55080392341786677,0.19938788005605035,40.964780059677729,0.52728221580911694,59.145333704679793,485.00000000000000,2188.0000000000000
201307071900,359.61537680943388,26.986858810589705,8.71108714613459262E-002,0,-14.971272483037611,0,22.248846502084380,1,4.0253899978800414,0,0.50531815415059345,1,-22.503026045026374,47.152797313573217,-4.3143546698534729,0.28157337928917703,125.47188335616069,0.17215012178215972,114.27960224659904,208.93956051653109,313.02953542662726
201307071930,362.78481243308960,26.984620548823152,6.32361565143993026E-002,0,-14.085003587336688,0,25.306636947770258,0,9.8434910745286999,0,0.57459832399761046,0,-6.6077272490196171,-7.35497634913758191E-002,2.3647338028442335,0.23975828536354313,82.348046024326990,0.26230130577256200,118.50527596408573,216.66543978160524,324.60431040523662
201307072000,367.00059808738888,26.814970089957818,6.91973359277276018E-002,0,-23.817333212834608,0,55.803888780679934,1,3.0900247262847369,2,1.2664807784736483,1,-10.170412176918887,-5.5877397527215420,3.1513293345617637,0.25056132236515988,55.592623779527671,0.38854075471707339,111.89503194725016,204.57980548963118,306.49782794494911
201307072030,370.58334158892592,26.526490355928775,4.56268143651543459E-002,0,-9.8106056195180500,0,25.724186510641122,0,6.0636869443738286,0,0.58357401149470112,0,-9.3614666060762985,-9.5212476735963794,2.6825545601630929,0.20328095973510241,72.077764355859969,0.29967633143221800,100.15016221115947,183.10643777797796,274.32681015297800
201307072100,373.80015890218039,26.242902204036529,4.67587129073744681E-002,0,-4.2039160072067006,2,22.808880193124327,1,3.1925089857163340,0,0.51726719891721262,1,-7.4700926761510402,-9.3724745248431631,2.4110352473665881,0.20567060478277360,174.18254126208737,0.12400783593746698,94.927800732948967,173.55829540904318,260.02195298497185
201307072130,375.28447883943358,25.879195092987956,4.57868215828566641E-003,2,-4.6027675393677514,2,-15.287913587743086,2,5.6290676714258794,2,-0.34663981307542713,2,-4.2123612257475322,-12.029765531300335,1.1131741531721391,6.43356692134546548E-002,4.8689019213674616,4.4363185680958441,1114.5597664542224,9389.0000000000000,-9999.
201307072200,485.35190206328537,25.659203115366743,0.34384775021247344,1,-1.3407766346516019,2,-137.25783537416132,2,214.36475038264476,1,-3.1106919397080861,2,-10.993677600762485,-7.2912646785963142,82.675090237262935,0.55706552741685278,10849.155753694344,1.99093832648174424E-003,157.80659839701948,288.52079170290614,432.25672134281018
201307072230,571.79769753585435,25.883248358097674,0.98197111662890058,1,-49.724211068779994,1,-355.62782078406121,1,144.21417538220823,1,-8.0548988552844225,1,-13.387420884881124,7.4453173730585549,65.066242341947415,0.94046608392898334,1407.6949359220314,1.53442336466545117E-002,185.78807365731654,339.67985271254179,508.90231713672728
201307072300,573.46463880648514,25.547958218033749,1.79876478152658573E-002,1,-25.106474704395570,1,35.902288262274425,1,35.960692787214136,1,0.81299063025477081,1,-5.2990704987572057,-11.160661443395060,1.2564721353870805,0.12718702607604671,6.8984450229201197,3.1311404132719605,182.33931270747291,1347.0000000000000,5603.0000000000000
201307072330,520.70631049262170,25.425296301385107,0.11525728957861243,1,-47.553934172763512,1,-2.4710257025732822,2,-16.574772336165815,0,-5.59508636665983217E-002,2,-1.7794425760225259,-4.0853312907910739,-39.786715835624285,0.32186400020863737,59.033293580593771,0.36589522098256511,83.071809240425708,151.88176168616474,227.54655548649089
201307080000,556.50442032760998,22.514557959934621,0.33132842403073620,0,-16.502420799218406,2,64.532770209793867,2,154.42773417725371,1,1.4592809681185270,2,-30.124605082548509,-97.503205159993428,27.116549853603544,0.54420525324832225,821.68127723051180,2.62875650188879838E-002,102.58736044402700,187.56241345216844,281.00267369799502
